Location: Doussal
(55.6167°N, 116.8333°W)
Time: 08:37:06
(UTC+00:00)

UNISAT 6 - Visible Passes

Search period start: 06 December 2023 00:00
Search period end: 16 December 2023 00:00
Orbit: 598 x 673 km, 97.7° (Epoch: 05 December)

Date Brightness Start Highest point End Pass type
(mag) Time Alt. Az. Time Alt. Az. Time Alt. Az.
06 Dec ? 01:08:22 10° NNE 01:12:54 82° ESE 01:17:17 10° SSW visible
06 Dec ? 02:45:38 10° N 02:48:49 19° NW 02:51:57 10° W visible
07 Dec ? 01:30:28 10° N 01:34:56 66° WNW 01:39:16 10° SSW visible
07 Dec ? 03:08:16 10° NNW 03:10:34 14° NW 03:12:51 10° W visible
08 Dec ? 00:16:19 10° NNE 00:20:17 30° E 00:24:08 10° SSE visible
08 Dec ? 01:52:38 10° N 01:56:53 44° WNW 02:01:01 10° SW visible
08 Dec ? 03:32:03 10° NW 03:32:16 10° NW 03:32:29 10° NW visible
09 Dec ? 00:38:09 10° NNE 00:42:28 46° E 00:46:38 10° S visible
09 Dec ? 02:14:53 10° N 02:18:46 30° WNW 02:22:34 10° WSW visible
10 Dec ? 01:00:06 10° NNE 01:04:34 71° ESE 01:08:53 10° S visible
10 Dec ? 02:37:14 10° N 02:40:36 21° WNW 02:43:53 10° WSW visible
11 Dec ? 01:22:09 10° NNE 01:26:35 76° WNW 01:30:54 10° SSW visible
11 Dec ? 02:59:45 10° NNW 03:02:20 15° NW 03:04:53 10° W visible
12 Dec ? 00:08:06 10° NE 00:11:49 26° E 00:15:27 10° SSE visible
12 Dec ? 01:44:15 10° N 01:48:32 50° WNW 01:52:42 10° SW visible
12 Dec ? 03:22:45 10° NNW 03:24:00 11° NW 03:25:16 10° WNW visible
13 Dec ? 00:29:51 10° NNE 00:34:00 39° E 00:38:02 10° SSE visible
13 Dec ? 02:06:26 10° N 02:10:25 34° WNW 02:14:18 10° SW visible
14 Dec ? 00:51:44 10° NNE 00:56:05 60° E 01:00:20 10° S visible
14 Dec ? 02:28:42 10° N 02:32:13 24° WNW 02:35:39 10° WSW visible
15 Dec ? 01:13:42 10° NNE 01:18:07 88° WNW 01:22:24 10° SSW visible
15 Dec ? 02:51:07 10° NNW 02:53:57 17° NW 02:56:44 10° W visible
